884  
AXUS43 KGID 230702  
MISGRI  
 
GID CWA HOURLY WEATHER ROUNDUP  
NATIONAL WEATHER SERVICE HASTINGS NE  
200 AM CDT SAT SEP 23 2017  
 
NOTE: "FAIR" INDICATES FEW OR NO CLOUDS BELOW 12,000 FEET WITH NO  
SIGNIFICANT WEATHER AND/OR OBSTRUCTIONS TO VISIBILITY.  
   
..SOUTH CENTRAL NEBRASKA
 
 
 
CITY SKY/WX TMP DP RH WIND PRES REMARKS  
GRAND ISLAND PTCLDY 75 66 73 S17G24 29.84S  
HASTINGS PTCLDY 76 64 66 S13 29.86S  
KEARNEY PTCLDY 76 64 66 S20G29 29.84R  
ORD MOCLDY 62 54 74 N5 29.87R  
YORK PTCLDY 73 66 78 S13 29.87R  
AURORA PTCLDY 75 67 76 S15G21 29.86R  
LEXINGTON PTCLDY 76 63 62 S17 29.82R  
HOLDREGE PTCLDY 76 62 61 S16G24 29.84R  
HEBRON PTCLDY 76 67 74 S8 29.89R  
   
..NEBRASKA PANHANDLE
 
 
 
CITY SKY/WX TMP DP RH WIND PRES REMARKS  
CHADRON CLOUDY 45 37 73 E9 30.00R  
ALLIANCE PTCLDY 47 38 71 NE15 29.99R  
SCOTTSBLUFF CLOUDY 50 38 63 MISG 29.98R  
SIDNEY CLOUDY 50 42 74 N14 29.95R  
   
..WESTERN AND NORTH CENTRAL NEBRASKA
 
 
 
CITY SKY/WX TMP DP RH WIND PRES REMARKS  
VALENTINE CLOUDY 50 46 86 N7 29.97F  
AINSWORTH CLOUDY 51 48 87 NW10 30.00R  
ONEILL PTCLDY 57 56 95 N3 29.91R  
BROKEN BOW PTCLDY 59 51 75 N15 29.88R  
IMPERIAL CLOUDY 60 50 69 N15 29.85R  
NORTH PLATTE PTCLDY 56 50 80 N15G23 29.89R  
MCCOOK PTCLDY 77 64 64 S20G31 29.79S  
   
..EASTERN NEBRASKA
 
 
 
CITY SKY/WX TMP DP RH WIND PRES REMARKS  
NORFOLK CLEAR 75 66 73 S7 29.86R  
SO SIOUX CITY PTCLDY 74 69 85 SE8 29.85R  
TEKAMAH CLEAR 74 67 78 S8 29.86R  
COLUMBUS CLEAR 75 67 76 S12 29.86S  
ALBION PTCLDY 74 66 76 CALM 29.87R  
OMAHA EPPLEY PTCLDY 78 67 68 S16 29.87R  
OFFUTT AFB CLEAR 75 68 77 SE15 29.87F  
MILLARD CLEAR 78 69 73 SE10G17 29.88R  
LINCOLN CLEAR 76 67 73 S14 29.88R  
NEBRASKA CITY CLEAR 73 71 91 S10 29.91S  
BEATRICE CLEAR 76 68 75 S12 29.90R  
FALLS CITY CLEAR 76 68 76 S8 29.92S  
   
..NORTHERN KANSAS
 
 
 
CITY SKY/WX TMP DP RH WIND PRES REMARKS  
GOODLAND CLEAR 72 61 68 S17 29.83S  
HILL CITY PTCLDY 77 66 68 S16G25 29.84R  
NORTON SUNNY 75 59 57 S15G22 29.82  
PHILLIPSBURG CLEAR 77 63 61 SE6 29.85R  
SMITH CENTER CLEAR 75 64 69 SE14G21 29.87R  
HAYS PTCLDY 76 65 68 S14 29.87R  
RUSSELL CLEAR 76 65 68 S17 29.86S  
CONCORDIA MOCLDY 74 69 85 S9 29.89S  
SALINA PTCLDY 79 67 66 S15 29.90R  
TOPEKA CLEAR 73 69 87 SE6 29.94R  
 
CLICK HERE TO GO TO PREVIOUS BULLETINS.

The Nexlab NE Page
The Nexlab KS Page Main Text Page